Boone County Airport
KHRO : now visible

Airfield :











YOU CAN JOIN US ON...

 
LOGIN :

Register | Disclaimer

   EN    FR    IT 

 









Legend :    VFR   Marginal VFR   IFR   Intensive IFR   Very Intensive IFR
Visi :
Ceiling :
>= 8 km
>= 3000ft
5 to 8 km
1000 to 3000 ft
1500m to 5 km
500 to 1000 ft
800 to 1500m
200 to 500 ft
< 800m
< 200 ft
Symbols :   Thunderstorms  Fog  Heavy snow  Heavy precipitations  Wind > 20 kt







- Airport Elevation : 1365 ft
- IATA code : HRO


KHRO - Boone County

CURRENT METAR :
  • 191353Z AUTO 20005KT 10SM CLR 28/22 A3002 RMK AO2 SLP148 T02780222

EXPIRED METARs :
  • 191253Z AUTO 17004KT 9SM CLR 26/22 A3001 RMK AO2 SLP144 T02560222
  • 191153Z AUTO 16005KT 8SM CLR 24/22 A3000 RMK AO2 SLP140 T02390217 10250 20222 53008

TAF KHRO
Valid from the 19 at 12:00 until the 20 at 12:00 UTC


191120Z 1912/2012 15006KT P6SM SKC
FM191400 19008G16KT P6SM FEW050 SCT250
FM200600 VRB05KT P6SM SKC
KZME FIR / North America



MET'MAP, your aeronautical weather chart ! - Copyright ORBIFLY December 2007 - Disclaimer

ORBIFLY MET'MAP TEAM :

Programming & Development : Alexandra Zaïnal
Concept & Development : Baudouin d'Aumeries
Co-Development & Prog : Marc-Olivier Méhu
Technical & hardware support : Manuel Goepfert

Contact : metmap@orbifly.com




SOURCES & CREDITS :

   NOAA       Earth
Advisory